Volver al catálogo

TITAN 3C TRANSTAGE DEB

ActivoMEO
NORAD 43453·DEBRIS·🇺🇸 United States

Lanzado Feb 9, 1969 desde Cape Canaveral Space Force Station

Loading…

Próximos Pases (próximas 24 horas)

TLE

ActualizadoSource: Space-Track

Época: Sep 14, 2026, 01:25 UTC

1 43453U 69013L   26257.05919035 -.00000166  00000-0  00000-0 0  9996
2 43453   1.7821 126.9733 0912515   5.3709 356.0419  1.07390330 32995

Sigue TITAN 3C TRANSTAGE DEB en tiempo real con AllMySat

Download on the App Store